[Iaude] MPEC B96: 2014 MC6 [a=2.22,e=0.63,i=10.4,H=19.40]
    mpec at marsden.cfa.harvard.edu 
    mpec at marsden.cfa.harvard.edu
       
    Tue Jan 23 09:25:03 EST 2024
    
    
  
M.P.E.C. 2024-B96                              Issued 2024 January 23, 14:23 UT
     The Minor Planet Electronic Circulars contain information on unusual
         minor planets, routine data on comets and natural satellites,
         and occasional editorial announcements.  They are published
    on behalf of Division F of the International Astronomical Union by the
          Minor Planet Center, Smithsonian Astrophysical Observatory,
                          Cambridge, MA 02138, U.S.A.
			  
             Prepared using the Tamkin Foundation Computer Network
                              MPC at CFA.HARVARD.EDU
            URL https://www.minorplanetcenter.net/    ISSN 1523-6714
                                    2014 MC6                                    
                           Revision to MPEC 2014-M35                            
Additional Observations:
     K14M06C  C2004 05 14.14917809 42 54.87 +27 27 12.8                WEB096645
     K14M06C  C2004 05 14.15000809 42 54.93 +27 27 12.2                WEB096645
     K14M06C  C2004 05 14.15249509 42 55.04 +27 27 10.3                WEB096645
     K14M06C  C2011 10 26.42667304 46 53.612+15 01 47.85         23.61GVEB096F51
     K14M06C  C2011 10 26.45575104 46 51.635+15 01 46.31         23.15GVEB096F51
     K14M06C  C2011 10 26.47031504 46 50.625+15 01 44.97         22.72GVEB096F51
     K14M06C  C2024 01 21.63407113 21 29.799+06 42 01.39         21.75GVEB096F52
     K14M06C  C2024 01 21.64194213 21 30.570+06 42 00.65         22.35GVEB096F52
Observer details:
645 Apache Point-Sloan Digital Sky Survey.  Observer .  Measurer S. Deen.
    2.5-m reflector + CCD.
F51 Pan-STARRS 1, Haleakala.  Observers J. Herman, T. Lowe, P. Minguez, A.
    Schultz, I. Smith.  Measurers K. Chambers, T. de Boer, J. Fairlamb, H.
    Gao, M. Huber, C.-C. Lin, E. Magnier, Y. Ramanjooloo, R. Wainscoat, R.
    Weryk.  1.8-m Ritchey-Chretien + CCD.
F52 Pan-STARRS 2, Haleakala.  Observers J. Herman, T. Lowe, P. Minguez, A.
    Schultz, I. Smith.  Measurers K. Chambers, T. de Boer, J. Fairlamb, H.
    Gao, M. Huber, C.-C. Lin, E. Magnier, Y. Ramanjooloo, R. Wainscoat, R.
    Weryk.  1.8-m Ritchey-Chretien + CCD.
First and last observations above in comparison with prediction:
Residuals in seconds of arc, reference and Delta-T
040514 645  4.2-  0.0-    240121 F52  9.2-  4.6-    MPO740452   +0.05 days
Orbital elements:
2014 MC6                                                 Earth MOID = 0.1116 AU
Epoch 2023 Sept. 13.0 TT = JDT 2460200.5                Veres                   
M 280.75328              (2000.0)            P               Q                  
n   0.29892771     Peri.  197.27440     +0.18929199     +0.96539554             
a   2.2152629      Node    83.91990     -0.87824402     +0.24816260             
e   0.6292346      Incl.   10.39321     -0.43915371     -0.08016711             
P   3.30           H   19.40          G   0.15           U   1                  
Residuals in seconds of arc
040514 645  0.5-  0.3+    140625 291  0.0   0.1+    140924 204  0.1-  0.0
040514 645  0.2-  0.2+    140625 291  0.1-  0.1+    140924 204  0.3-  0.3-
040514 645  0.3-  0.1-    140625 G96  0.4+  0.0     140924 204  0.3+  0.1-
111026 F51  0.1-  0.0     140625 G96  0.5+  0.1-    141001 807  0.3+  0.0
111026 F51  0.0   0.0     140625 G96  0.1-  0.1+    141001 807  0.2+  0.1-
111026 F51  0.2-  0.5-    140626 291  0.4+  0.5+    141001 807  0.4+  0.1-
140615 F51  0.2-  0.1+    140626 291  0.1+  0.4+    141001 807  0.1+  0.0
140615 F51  0.3+  0.3+    140626 291  0.2-  0.3-    141012 807  0.2+  0.3-
140615 F51  0.2-  0.4+    140817 474  0.7+  0.2+    141012 807  0.1+  0.2-
140615 F51  0.0   0.6+    140817 474  0.7+  0.2+    141012 807  0.0   0.5-
140618 291  0.5-  0.3+    140817 474  0.6+  0.2+    141023 G45  0.8-  0.5+
140618 291 (1.1-  2.2-)   140817 474  0.5+  0.3+    141023 G45  0.2+  0.4+
140618 291  0.2-  1.1-    140817 474  1.1+  0.3+    141023 G45  0.4-  0.5+
140622 291  0.0   0.6-    140829 C51  0.1-  0.1+    141023 G45  0.4+  0.1-
140622 291  0.5+  0.5+    140829 C51  0.2+  0.0     141025 807  0.2+  0.0
140622 291  0.2-  0.4-    140904 568  0.4+  0.2+    141025 807  0.1-  0.1-
140623 291  0.1-  0.3+    140904 568  0.4+  0.2+    141025 807  0.2+  0.1-
140623 291  0.2-  0.1-    140909 807  0.3-  0.6-    141027 F51  0.0   0.4-
140623 291  0.1-  0.2-    140909 807  1.0-  0.8-    141027 F51  0.8+  0.6-
140624 291  0.4+  0.4+    140909 807  0.5-  0.9-    141027 F51  0.2+  0.4-
140624 291  0.2+  0.1-    140919 F51  0.3+  0.0     141027 F51  0.1+  0.3-
140624 291  0.1+  0.3-    140919 F51  0.3+  0.0     240121 F52  0.1-  0.3+
140625 291  0.2-  0.6-    140919 F51  0.3+  0.1-    240121 F52  0.1-  0.1+
140625 G96  0.2-  0.2+    140919 F51  0.4+  0.0
Ephemeris:
2014 MC6                 a,e,i = 2.22, 0.63, 10                  q = 0.8213
Date    TT    R. A. (2000) Decl.     Delta      r    Elong.  Phase     V
2023 12 24    12 34 55.7 +08 07 56   1.8937  2.0854    86.9    28.1    23.6
...
2024 01 08    12 59 04.2 +07 10 38   1.6051  1.9673    95.9    29.8    23.2
...
2024 01 16    13 12 09.5 +06 50 43   1.4550  1.9020   100.7    30.5    22.9
...
2024 01 22    13 22 06.3 +06 41 39   1.3449  1.8521   104.3    31.0    22.7
2024 01 23    13 23 46.6 +06 40 40   1.3268  1.8437   104.9    31.1    22.7
2024 01 24    13 25 27.1 +06 39 51   1.3088  1.8352   105.4    31.1    22.6
...
2024 01 30    13 35 36.7 +06 38 28   1.2023  1.7841   108.9    31.5    22.4
...
2024 02 07    13 49 29.7 +06 47 08   1.0651  1.7147   113.4    31.9    22.1
...
2024 02 22    14 17 09.0 +07 42 21   0.8252  1.5808   121.0    32.4    21.3
A. U. Tomatic                (C) Copyright 2024 MPC           M.P.E.C. 2024-B96
    
    
More information about the Iaude
mailing list